Location: Borkenes
(68.7830°N, 16.1830°E)
Time: 04:42:51
(UTC+01:00)

Transit 2A - Visible Passes

Search period start: 07 December 2019 00:00
Search period end: 17 December 2019 00:00
Orbit: 602 x 957 km, 66.7° (Epoch: 06 December)

Date Brightness Start Highest point End Pass type
(mag) Time Alt. Az. Time Alt. Az. Time Alt. Az.
07 Dec 8.8 07:57:29 10° SSE 08:00:24 17° ESE 08:03:15 10° E visible
07 Dec 7.5 14:47:01 10° WNW 14:51:00 35° SW 14:55:01 10° SSE visible
07 Dec 9.0 16:30:45 10° W 16:33:05 14° WSW 16:35:27 10° SSW visible
08 Dec 9.0 07:24:12 10° SSE 07:26:32 14° ESE 07:28:48 10° E visible
08 Dec 7.6 09:04:32 10° SSW 09:08:36 34° SE 09:12:34 10° ENE visible
08 Dec 8.8 15:56:19 10° W 15:59:13 17° WSW 16:02:08 10° SSW visible
09 Dec 9.4 06:51:22 10° SE 06:52:41 11° ESE 06:53:59 10° E visible
09 Dec 7.9 08:30:43 10° SSW 08:34:37 29° SE 08:38:25 10° ENE visible
09 Dec 8.6 15:22:02 10° W 15:25:19 21° SW 15:28:38 10° S visible
10 Dec 8.2 07:56:59 10° S 08:00:40 25° SE 08:04:15 10° ENE visible
10 Dec 8.3 14:47:49 10° WNW 14:51:23 25° SW 14:55:00 10° S visible
11 Dec 8.5 07:23:21 10° S 07:26:44 21° SE 07:30:02 10° E visible
11 Dec 6.9 09:04:49 10° SW 09:09:06 46° SSE 09:13:16 10° ENE visible
11 Dec 9.2 15:58:08 10° W 15:59:20 11° WSW 16:00:33 10° SW visible
12 Dec 8.7 06:49:51 10° SSE 06:52:50 18° ESE 06:55:44 10° E visible
12 Dec 7.1 08:30:52 10° SW 08:35:04 40° SSE 08:39:09 10° ENE visible
12 Dec 8.9 15:23:18 10° W 15:25:30 14° WSW 15:27:45 10° SSW visible
13 Dec 8.8 06:16:32 10° SSE 06:18:57 14° ESE 06:21:19 10° E visible
13 Dec 7.4 07:56:59 10° SSW 08:01:03 35° SE 08:05:02 10° ENE visible
13 Dec 8.6 14:48:50 10° W 14:51:39 17° WSW 14:54:30 10° SSW visible
14 Dec 8.9 05:43:35 10° SE 05:45:07 12° ESE 05:46:37 10° E visible
14 Dec 7.6 07:23:09 10° SSW 07:27:04 30° SE 07:30:54 10° ENE visible
14 Dec 6.3 09:05:19 10° WSW 09:09:40 58° SSE 09:13:57 10° E visible
15 Dec 7.9 06:49:24 10° S 06:53:06 26° SE 06:56:43 10° ENE visible
15 Dec 6.5 08:31:16 10° SW 08:35:36 52° SSE 08:39:51 10° E visible
16 Dec 8.1 06:15:45 10° S 06:19:10 22° SE 06:22:31 10° ENE visible
16 Dec 6.7 07:57:16 10° SW 08:01:33 47° SSE 08:05:44 10° E visible
16 Dec 9.0 14:50:51 10° WSW 14:51:45 11° WSW 14:52:39 10° SW visible
